• In Deutschland
  • Länderverzeichnis
  • Für 7 Tage
  • Wassertemperatur
  • Satellitenkarten
  • Wetterkarte
  • Widgets
  • user-avatar
    Anmelden

    Stündliche Wetter Limbach-Oberfrohna

    Heute, 20 Oktober, Freitag

    Zeit Temperatur Niederschläge Wind Luftdruck Luftfeuchtigkeit
    00:00 +11°C° 0 mm 3 m/S 730 mmHg 67%
    01:00 +11°C° 0 mm 3 m/S 730 mmHg 67%
    02:00 +11°C° 0 mm 3 m/S 729 mmHg 66%
    03:00 +11°C° 0 mm 3 m/S 729 mmHg 66%
    04:00 +12°C° 0 mm 2 m/S 729 mmHg 65%
    05:00 +11°C° 0 mm 3 m/S 729 mmHg 64%
    06:00 +11°C° 0 mm 3 m/S 729 mmHg 64%
    07:00 +10°C° 0 mm 3 m/S 729 mmHg 63%
    08:00 +12°C° 0 mm 3 m/S 730 mmHg 59%
    09:00 +14°C° 0 mm 3 m/S 730 mmHg 56%
    10:00 +17°C° 0 mm 3 m/S 730 mmHg 52%
    11:00 +18°C° 0 mm 3 m/S 730 mmHg 51%
    12:00 +18°C° 0 mm 3 m/S 730 mmHg 51%
    13:00 +19°C° 0 mm 4 m/S 731 mmHg 50%
    14:00 +18°C° 0,1 mm 3 m/S 730 mmHg 57%
    15:00 +17°C° 0,1 mm 3 m/S 730 mmHg 64%
    16:00 +16°C° 0,1 mm 2 m/S 730 mmHg 71%
    17:00 +14°C° 0,1 mm 3 m/S 730 mmHg 74%
    18:00 +14°C° 0,1 mm 3 m/S 730 mmHg 78%
    19:00 +13°C° 0,1 mm 3 m/S 730 mmHg 82%
    20:00 +13°C° 0,1 mm 3 m/S 731 mmHg 84%
    21:00 +12°C° 0,1 mm 3 m/S 731 mmHg 86%
    22:00 +12°C° 0,1 mm 4 m/S 731 mmHg 88%
    23:00 +11°C° 0 mm 3 m/S 731 mmHg 89%

    Morgen, 21 Oktober, Samstag

    Zeit Temperatur Niederschläge Wind Luftdruck Luftfeuchtigkeit
    00:00 +10°C° 0 mm 3 m/S 731 mmHg 91%
    01:00 +10°C° 0 mm 3 m/S 731 mmHg 92%
    02:00 +9°C° 0 mm 3 m/S 731 mmHg 92%
    03:00 +9°C° 0 mm 3 m/S 731 mmHg 92%
    04:00 +8°C° 0 mm 3 m/S 731 mmHg 92%
    05:00 +9°C° 0 mm 3 m/S 731 mmHg 91%
    06:00 +9°C° 0 mm 3 m/S 731 mmHg 90%
    07:00 +10°C° 0 mm 2 m/S 731 mmHg 89%
    08:00 +11°C° 0 mm 3 m/S 731 mmHg 87%
    09:00 +12°C° 0 mm 3 m/S 731 mmHg 84%
    10:00 +13°C° 0 mm 3 m/S 731 mmHg 81%
    11:00 +14°C° 0 mm 3 m/S 731 mmHg 77%
    12:00 +16°C° 0 mm 3 m/S 730 mmHg 73%
    13:00 +17°C° 0 mm 4 m/S 730 mmHg 69%
    14:00 +17°C° 0 mm 3 m/S 730 mmHg 71%
    15:00 +17°C° 0 mm 3 m/S 730 mmHg 73%
    16:00 +17°C° 0 mm 2 m/S 729 mmHg 75%
    17:00 +16°C° 0 mm 2 m/S 729 mmHg 79%
    18:00 +15°C° 0 mm 2 m/S 729 mmHg 83%
    19:00 +13°C° 0 mm 3 m/S 729 mmHg 86%
    20:00 +13°C° 0,5 mm 3 m/S 729 mmHg 88%
    21:00 +13°C° 0,5 mm 3 m/S 729 mmHg 90%
    22:00 +13°C° 0,5 mm 3 m/S 730 mmHg 92%
    23:00 +12°C° 0,7 mm 3 m/S 730 mmHg 91%

    übermorgen, 22 Oktober, Sonntag

    Zeit Temperatur Niederschläge Wind Luftdruck Luftfeuchtigkeit
    00:00 +12°C° 0,7 mm 4 m/S 730 mmHg 90%
    01:00 +12°C° 0,7 mm 5 m/S 730 mmHg 90%
    02:00 +11°C° 0,5 mm 4 m/S 730 mmHg 89%
    03:00 +11°C° 0,5 mm 4 m/S 730 mmHg 88%
    04:00 +10°C° 0,5 mm 4 m/S 730 mmHg 88%
    05:00 +10°C° 0 mm 4 m/S 730 mmHg 87%
    06:00 +10°C° 0 mm 4 m/S 730 mmHg 87%
    07:00 +8°C° 0 mm 4 m/S 730 mmHg 86%
    08:00 +9°C° 0 mm 5 m/S 730 mmHg 82%
    09:00 +9°C° 0 mm 5 m/S 730 mmHg 78%
    10:00 +10°C° 0 mm 6 m/S 731 mmHg 74%
    11:00 +10°C° 0 mm 6 m/S 730 mmHg 71%
    12:00 +10°C° 0 mm 6 m/S 730 mmHg 68%
    13:00 +11°C° 0 mm 6 m/S 730 mmHg 65%
    14:00 +10°C° 0 mm 5 m/S 729 mmHg 66%
    15:00 +9°C° 0 mm 5 m/S 729 mmHg 68%
    16:00 +10°C° 0 mm 4 m/S 729 mmHg 69%
    17:00 +8°C° 0 mm 4 m/S 730 mmHg 72%
    18:00 +8°C° 0 mm 3 m/S 730 mmHg 75%
    19:00 +8°C° 0 mm 3 m/S 730 mmHg 77%
    20:00 +7°C° 0 mm 3 m/S 730 mmHg 79%
    21:00 +7°C° 0 mm 3 m/S 730 mmHg 80%
    22:00 +7°C° 0 mm 3 m/S 730 mmHg 81%
    23:00 +7°C° 0 mm 3 m/S 730 mmHg 83%

    23 Oktober, Montag

    Zeit Temperatur Niederschläge Wind Luftdruck Luftfeuchtigkeit
    00:00 +7°C° 0 mm 3 m/S 730 mmHg 85%
    01:00 +5°C° 0 mm 3 m/S 730 mmHg 86%
    02:00 +5°C° 0 mm 3 m/S 730 mmHg 87%
    03:00 +5°C° 0 mm 3 m/S 730 mmHg 87%
    04:00 +5°C° 0 mm 3 m/S 730 mmHg 87%
    05:00 +5°C° 0 mm 3 m/S 730 mmHg 88%
    06:00 +4°C° 0 mm 3 m/S 730 mmHg 88%
    07:00 +4°C° 0 mm 3 m/S 730 mmHg 89%
    08:00 +5°C° 0 mm 3 m/S 730 mmHg 84%
    09:00 +6°C° 0 mm 4 m/S 730 mmHg 78%
    10:00 +8°C° 0 mm 4 m/S 730 mmHg 73%
    11:00 +10°C° 0 mm 4 m/S 730 mmHg 70%
    12:00 +10°C° 0 mm 4 m/S 730 mmHg 67%
    13:00 +11°C° 0 mm 4 m/S 730 mmHg 65%
    14:00 +11°C° 0,1 mm 4 m/S 730 mmHg 70%
    15:00 +10°C° 0,1 mm 3 m/S 730 mmHg 76%
    16:00 +9°C° 0,1 mm 3 m/S 730 mmHg 82%
    17:00 +9°C° 0,5 mm 3 m/S 731 mmHg 85%
    18:00 +9°C° 0,5 mm 3 m/S 731 mmHg 88%
    19:00 +7°C° 0,5 mm 4 m/S 731 mmHg 91%
    20:00 +8°C° 0,4 mm 3 m/S 731 mmHg 91%
    21:00 +8°C° 0,4 mm 3 m/S 732 mmHg 91%
    22:00 +8°C° 0,4 mm 3 m/S 732 mmHg 92%
    23:00 +8°C° 0,1 mm 3 m/S 732 mmHg 92%

    24 Oktober, Dienstag

    Zeit Temperatur Niederschläge Wind Luftdruck Luftfeuchtigkeit
    00:00 +8°C° 0,1 mm 3 m/S 732 mmHg 92%
    01:00 +8°C° 0,1 mm 3 m/S 732 mmHg 91%
    02:00 +8°C° 0 mm 3 m/S 732 mmHg 92%
    03:00 +7°C° 0 mm 3 m/S 732 mmHg 92%
    04:00 +7°C° 0 mm 2 m/S 733 mmHg 93%
    05:00 +7°C° 0 mm 2 m/S 733 mmHg 93%
    06:00 +7°C° 0 mm 2 m/S 733 mmHg 93%
    07:00 +7°C° 0 mm 2 m/S 733 mmHg 93%
    08:00 +9°C° 0 mm 1 m/S 734 mmHg 89%
    09:00 +10°C° 0 mm 1 m/S 734 mmHg 85%
    10:00 +11°C° 0 mm 1 m/S 735 mmHg 81%
    11:00 +12°C° 0 mm 1 m/S 735 mmHg 76%
    12:00 +13°C° 0 mm 1 m/S 735 mmHg 72%
    13:00 +14°C° 0 mm 1 m/S 735 mmHg 68%
    14:00 +14°C° 0 mm 1 m/S 735 mmHg 70%
    15:00 +13°C° 0 mm 1 m/S 735 mmHg 72%
    16:00 +12°C° 0 mm 0 m/S 735 mmHg 73%
    17:00 +12°C° 0 mm 1 m/S 735 mmHg 78%
    18:00 +11°C° 0 mm 1 m/S 736 mmHg 82%
    19:00 +9°C° 0 mm 2 m/S 736 mmHg 86%
    20:00 +8°C° 0 mm 2 m/S 736 mmHg 88%
    21:00 +8°C° 0 mm 2 m/S 736 mmHg 89%
    22:00 +8°C° 0 mm 2 m/S 736 mmHg 90%
    23:00 +8°C° 0 mm 2 m/S 736 mmHg 90%

    25 Oktober, Mittwoch

    Zeit Temperatur Niederschläge Wind Luftdruck Luftfeuchtigkeit
    00:00 +9°C° 0 mm 2 m/S 736 mmHg 90%
    01:00 +9°C° 0 mm 2 m/S 737 mmHg 90%
    02:00 +9°C° 0 mm 2 m/S 736 mmHg 91%
    03:00 +9°C° 0 mm 2 m/S 736 mmHg 92%
    04:00 +9°C° 0 mm 2 m/S 736 mmHg 93%
    05:00 +9°C° 0 mm 2 m/S 736 mmHg 93%
    06:00 +10°C° 0 mm 3 m/S 737 mmHg 94%
    07:00 +10°C° 0 mm 3 m/S 737 mmHg 94%
    08:00 +11°C° 0 mm 3 m/S 737 mmHg 90%
    09:00 +13°C° 0 mm 3 m/S 737 mmHg 86%
    10:00 +14°C° 0 mm 3 m/S 738 mmHg 81%
    11:00 +14°C° 0 mm 3 m/S 738 mmHg 81%
    12:00 +16°C° 0 mm 3 m/S 737 mmHg 80%
    13:00 +16°C° 0 mm 3 m/S 737 mmHg 80%
    14:00 +16°C° 0 mm 3 m/S 737 mmHg 81%
    15:00 +16°C° 0 mm 3 m/S 737 mmHg 83%
    16:00 +16°C° 0 mm 2 m/S 737 mmHg 84%
    17:00 +15°C° 0 mm 2 m/S 737 mmHg 87%
    18:00 +14°C° 0 mm 2 m/S 738 mmHg 90%
    19:00 +13°C° 0 mm 2 m/S 738 mmHg 93%
    20:00 +13°C° 0 mm 2 m/S 738 mmHg 93%
    21:00 +13°C° 0 mm 2 m/S 738 mmHg 93%
    22:00 +12°C° 0 mm 2 m/S 738 mmHg 93%
    23:00 +12°C° 0 mm 2 m/S 738 mmHg 93%
    Mehr zeigen